User: anonymous   Login
Location: Unspecified
(0.0000°N, 0.0000°E)
Time: 23:57:46
(UTC+00:00)
Language:

ONEWEB-0475 - Orbit

View from above orbital plane
View from above orbital plane
View from above satellite
View from above satellite

Ground track
Ground track

The orbit is defined by the following mean orbital elements,

1 51655U          26145.13774992 +.00000000 +00000-0 +15432-3 0 00003
2 51655  87.9153  10.4565 0002153  68.3097 291.8263 13.17648992    03
Epoch (UTC): 25 May 2026 03:18:21
Eccentricity: 0.0002153
inclination: 87.9153°
perigee height: 1192 km
apogee height: 1195 km
right ascension of ascending node: 10.4565°
argument of perigee: 68.3097°
revolutions per day: 13.17648992
mean anomaly at epoch: 291.8263°

The dashed part of the orbit path shows where the satellite is in the earth's shadow,  

DLR